STARLINK-5273 (54162 NORAD) Tracking and Keplerian Element Data

This shows tracking and keplerian element data for the satellite.

Feedback or suggestion? Click here.




ElementValue
Catalog54162
NameSTARLINK-5273
Epoch Orbit130
Epoch Day324.91667824
Epoch Year2022
RAAN26.0655
Inclination53.2176
Eccentricity0.0001447
Argument of Perigee48.4241
Mean Anonmoly89.9188
Mean Motion15.58764544
Decay Rate-0.01187715
L11 54162U 22141F 22324.91667824 -.01187715 00000+0 -16813-1 0 9995
L22 54162 53.2176 26.0655 0001447 48.4241 89.9188 15.58764544 1303



Live tracking and technical data element details for STARLINK-5273 (NORAD 54162). STARLINK-5273 can be tracked NOW for your location showing map with azimuth and elevation plus other details from your city location.







IsCatalogInMostPopularTable: catalog: 54162, numindb: 8
Update: records affected: 1



GetName: 54162 STARLINK-5273

Hit Count: updated at: Sun, 04 Dec 2022 22:41:22 GMT